Regional Weather Roundup
Issued by NWS Little Rock, AR

Home | Current Version | Previous Version | Text Only | Print | Product List | Glossary Off
Versions: 1 2 3 4 5 6 7 8 9 10 11 12 13 14 15 16 17 18 19 20 21 22 23 24 25 26 27 28 29 30 31 32 33 34 35 36 37 38 39 40 41 42 43 44 45 46 47 48 49 50

079
ASUS44 KLZK 171812
RWRLZK

WEATHER ROUNDUP FOR ARKANSAS
NATIONAL WEATHER SERVICE LITTLE ROCK AR
100 PM CDT TUE OCT 17 2017

NOTE: "FAIR" INDICATES FEW OR NO CLOUDS BELOW 12,000 FEET WITH NO
SIGNIFICANT WEATHER AND/OR OBSTRUCTIONS TO VISIBILITY.

ARZ001-003-010-029-171900-
NORTHWEST ARKANSAS

CITY           SKY/WX    TMP DP  RH WIND       PRES   REMARKS
FAYETTEVILLE   SUNNY     65  42  43 S10       30.29F
6HR MIN TEMP:  36; 6HR MAX TEMP:  65;

FORT SMITH     SUNNY     68  39  34 SE5       30.29F
6HR MIN TEMP:  45; 6HR MAX TEMP:  69;

HARRISON       SUNNY     64  38  38 S8        30.30F
6HR MIN TEMP:  39; 6HR MAX TEMP:  65;

BENTONVILLE    SUNNY     65  41  41 SW7       30.31F
6HR MIN TEMP:  44; 6HR MAX TEMP:  65;

ROGERS         SUNNY     66  43  43 S13       30.30F
6HR MIN TEMP:  46; 6HR MAX TEMP:  66;

SILOAM SPGS    SUNNY     66  42  41 S14       30.29F
6HR MIN TEMP:  40; 6HR MAX TEMP:  66;

HIGHFILL       SUNNY     65  42  43 SW8       30.30F
6HR MIN TEMP:  40; 6HR MAX TEMP:  66;

SPRINGDALE     SUNNY     64  41  42 SE9       30.31F
$$

ARZ004-005-016-171900-
NORTH CENTRAL ARKANSAS

CITY           SKY/WX    TMP DP  RH WIND       PRES   REMARKS
BATESVILLE     SUNNY     66  40  38 VRB3      30.32F
6HR MIN TEMP:  38; 6HR MAX TEMP:  66;

FLIPPIN        SUNNY     66  40  38 S7        30.31F
6HR MIN TEMP:  37; 6HR MAX TEMP:  67;

$$

ARZ040-041-171900-
WEST CENTRAL ARKANSAS

CITY           SKY/WX    TMP DP  RH WIND       PRES   REMARKS
MENA           SUNNY     68  39  34 SE5       30.30F
$$

ARZ009-017-025-026-028-171900-
NORTHEAST ARKANSAS

CITY           SKY/WX    TMP DP  RH WIND       PRES   REMARKS
JONESBORO      SUNNY     65  43  44 CALM      30.31F
6HR MIN TEMP:  41; 6HR MAX TEMP:  67;

NEWPORT        SUNNY     65  42  43 VRB5      30.32F
6HR MIN TEMP:  38; 6HR MAX TEMP:  66;

WALNUT RIDGE   SUNNY     66  41  40 VRB6      30.31F
6HR MIN TEMP:  39; 6HR MAX TEMP:  67;

BLYTHEVILLE    SUNNY     67  42  40 E8        30.31F
6HR MIN TEMP:  40; 6HR MAX TEMP:  67;

NW BLYTHEVILLE MOSUNNY   68  45  42 SE7       30.31F
$$

ARZ022-023-033-042-044-171900-
CENTRAL ARKANSAS

CITY           SKY/WX    TMP DP  RH WIND       PRES   REMARKS
LITTLE ROCK    MOSUNNY   67  42  40 VRB7      30.31F
6HR MIN TEMP:  43; 6HR MAX TEMP:  68;

N LITTLE ROCK    N/A     66  42  42 SE3       30.33F
6HR MIN TEMP:  47; 6HR MAX TEMP:  66;

JACKSONVILLE   SUNNY     67  42  41 E7        30.30F
6HR MIN TEMP:  37; 6HR MAX TEMP:  67;

SEARCY         SUNNY     66  44  45 CALM      30.32F
6HR MIN TEMP:  39; 6HR MAX TEMP:  66;

HOT SPRINGS    SUNNY     67  38  34 VRB5      30.31F
6HR MIN TEMP:  39; 6HR MAX TEMP:  68;

RUSSELLVILLE   SUNNY     66  39  37 E9        30.32F
6HR MIN TEMP:  38; 6HR MAX TEMP:  66;

CLINTON        FAIR      64  41  42 CALM      30.32F
$$

ARZ036-171900-
EAST ARKANSAS

CITY           SKY/WX    TMP DP  RH WIND       PRES   REMARKS
WEST MEMPHIS   SUNNY     67  43  41 CALM      30.29F
6HR MIN TEMP:  41; 6HR MAX TEMP:  68;

$$

ARZ050-053-066-070-073-171900-
SOUTHWEST ARKANSAS

CITY           SKY/WX    TMP DP  RH WIND       PRES   REMARKS
ARKADELPHIA    FAIR      68  43  40 CALM      30.31F
6HR MIN TEMP:  35; 6HR MAX TEMP:  68;

CAMDEN         SUNNY     73  37  27 N6        30.29F
TEXARKANA      SUNNY     68  39  34 MISG      30.29F
6HR MIN TEMP:  39; 6HR MAX TEMP:  69;

EL DORADO      SUNNY     67  44  43 N9        30.29F
6HR MIN TEMP:  40; 6HR MAX TEMP:  68;

DE QUEEN       SUNNY     67  41  38 VRB6      30.29
6HR MIN TEMP:  36; 6HR MAX TEMP:  68;

$$

ARZ056-057-069-171900-
SOUTHEAST ARKANSAS

CITY           SKY/WX    TMP DP  RH WIND       PRES   REMARKS
PINE BLUFF     SUNNY     69  40  34 NE8       30.30F
6HR MIN TEMP:  42; 6HR MAX TEMP:  69;

STUTTGART      SUNNY     68  41  37 NE6       30.31F HAZE
6HR MIN TEMP:  40; 6HR MAX TEMP:  68;

MONTICELLO     SUNNY     69  41  36 NE8       30.29F
6HR MIN TEMP:  44; 6HR MAX TEMP:  69;


$$






USA.gov is the U.S. government's official web portal to all federal, state and local government web resources and services.